Location: Brompton
(51.4000°N, 0.5333°E)
Time: 10:40:17
(UTC+00:00)

Cosmos 1898 Rocket - Pass Details

Date: 26 September 2021
Orbit: 752 x 784 km, 74.0° (Epoch: 17 October)

Event Time Altitude Azimuth Distance (km) Brightness Sun altitude
Exits shadow 22:30:38 18° 293° (WNW) 1,843 5.8 -37.6°
Maximum altitude 22:32:14 20° 316° (NW) 1,727 5.8 -37.7°
Drops below altitude 10° 22:36:05 10° 3° (N) 2,325 6.6 -37.9°
Sets 22:39:08 0° 21° (NNE) 3,262 7.3 -38.1°
